Wind_Speed
21 22 23 24 24 24 25 25 24 25 25 24 24 26 26 26 26 26 26 26 27 27 27 29 29 30 32 33 34 35 37 38 39 40 41 42 43 44 44 44 45 46 47 49
19 20 21 22 22 22 23 23 23 23 24 22 22 25 27 26 26 26 26 26 26 27 27 28 29 30 32 33 35 37 38 39 41 42 43 44 45 45 45 46 47 49 51 52
17 18 18 19 19 20 21 22 22 22 21 21 21 22 27 26 25 26 26 26 27 27 27 28 29 30 31 33 35 37 38 40 41 43 44 45 46 47 47 48 50 52 54 54
14 15 16 17 18 19 19 21 21 22 21 20 22 21 25 29 28 27 27 27 27 28 28 29 30 30 31 33 34 36 38 40 42 44 45 46 47 48 49 51 53 54 55 56
13 14 15 17 18 19 20 21 22 23 23 22 22 22 22 28 30 29 29 29 29 29 30 31 32 32 33 34 35 37 39 41 43 44 46 48 49 50 52 54 55 55 57 58
14 15 16 17 19 20 21 22 24 25 25 25 22 22 23 27 29 32 34 33 33 32 33 34 35 35 36 36 37 39 40 42 44 46 47 49 50 52 54 55 56 57 58 59
15 15 17 18 20 21 23 25 27 28 28 28 28 27 26 29 32 34 36 36 35 35 35 35 36 37 38 39 40 41 42 44 46 47 49 50 52 54 55 56 58 59 60 60
17 16 17 19 21 23 24 26 28 30 31 31 30 29 28 30 32 34 36 37 36 36 35 36 37 39 40 41 42 44 45 47 48 50 51 53 54 55 56 58 59 60 61 62
19 20 19 22 23 26 27 28 30 32 34 35 33 31 30 30 32 34 37 38 38 37 37 38 39 40 41 42 43 45 46 48 50 51 53 54 56 57 58 59 61 61 62 63
22 23 22 23 26 27 29 31 32 34 36 37 35 34 32 32 34 36 38 39 39 39 40 40 40 41 42 43 44 46 47 48 50 51 53 55 56 57 58 59 60 62 63 64
26 26 26 26 27 29 29 30 32 33 34 37 37 33 32 33 35 36 37 38 39 39 39 40 41 42 43 44 45 46 47 49 50 51 53 54 55 56 57 58 59 60 61 62
28 29 28 28 29 31 31 30 30 32 33 34 36 34 32 34 36 37 37 38 39 39 40 41 42 43 44 45 45 46 47 49 51 52 53 54 55 57 57 58 59 59 59 60
29 30 30 29 31 31 30 28 29 31 31 31 32 32 31 34 37 38 39 40 41 42 42 43 44 46 47 47 48 48 49 51 52 53 54 54 55 57 57 58 58 58 58 59
31 30 31 30 29 30 30 30 30 31 32 32 31 32 31 35 37 38 39 41 43 44 45 46 47 48 49 50 51 51 52 53 53 54 54 54 55 56 57 57 57 57 57 58
32 30 30 29 28 29 28 27 29 31 33 35 33 34 36 37 38 40 42 44 45 47 48 49 50 51 52 53 54 55 55 56 56 56 56 56 56 55 56 56 56 57 58 58
31 31 30 28 29 29 27 27 30 31 33 35 36 37 39 41 42 44 45 47 49 50 51 52 53 54 55 56 57 57 58 58 58 58 58 58 58 57 57 56 56 57 57 57
30 31 31 29 29 29 28 29 31 33 34 37 39 40 42 44 45 47 49 51 52 53 55 56 57 59 59 60 61 61 61 61 61 60 60 59 59 58 57 57 57 57 56 56
30 31 32 30 30 31 30 32 34 36 37 39 41 43 45 47 48 50 52 55 56 58 60 61 62 63 64 64 64 64 64 64 63 63 62 61 60 59 59 58 58 58 57 57
30 31 33 34 35 35 33 35 38 40 41 43 45 47 48 50 52 53 56 59 61 62 64 65 66 67 68 68 68 67 66 65 65 64 62 61 61 59 59 58 58 58 57 57
30 32 35 37 39 39 38 40 43 45 47 48 50 52 54 56 57 58 61 63 65 67 68 70 70 71 71 70 70 69 68 66 65 64 62 61 61 60 59 58 57 57 57 57
31 34 36 38 42 42 43 46 47 49 52 53 55 57 59 61 63 65 67 69 70 72 73 73 74 74 73 72 71 69 68 66 65 64 62 61 60 59 58 58 57 57 57 57
34 36 38 41 44 45 48 50 52 54 56 57 59 62 63 65 67 69 71 72 74 75 76 76 76 75 73 72 70 68 66 65 64 62 60 59 58 58 58 58 57 57 57 57
37 38 41 45 47 48 51 53 56 58 60 62 64 65 68 69 71 73 74 76 77 77 77 77 76 74 71 69 68 66 64 63 62 60 59 58 58 58 58 57 57 57 57 57
39 41 46 49 49 51 53 56 58 60 63 65 67 69 71 73 75 76 78 78 78 78 77 75 73 70 68 66 65 64 63 62 60 59 58 58 57 56 56 56 56 55 55 54
41 47 51 53 53 56 58 60 62 64 66 68 70 72 74 76 77 78 79 78 77 75 73 71 69 67 65 63 62 62 62 60 58 57 56 56 55 54 54 53 53 53 53 54
45 52 55 56 57 60 62 64 66 68 69 71 73 74 76 78 78 78 77 76 73 71 69 67 65 64 62 61 60 60 59 58 57 55 54 53 53 52 51 50 49 50 50 51
Wind_Direction
275 278 282 284 286 289 292 295 297 299 301 303 303 301 300 301 302 302 302 301 298 296 293 290 287 284 282 280 278 276 275 275 276 277 277 277 278 279 280 281 282 283 283 285
279 282 285 287 289 292 295 296 298 299 301 303 304 303 302 302 304 304 304 303 302 301 298 295 292 289 286 283 281 280 279 279 279 279 279 280 280 281 282 282 282 282 282 284
284 287 289 291 294 297 299 300 301 302 303 306 306 306 304 303 304 305 305 305 303 302 301 299 296 292 289 287 285 284 283 282 282 281 282 282 282 282 282 281 281 282 284 285
288 292 294 296 298 300 302 303 305 306 306 309 309 311 310 308 308 307 306 306 305 304 303 301 298 295 291 289 286 284 284 283 283 282 282 282 281 282 282 281 282 283 284 284
289 292 295 297 300 302 304 306 307 308 309 311 310 310 313 308 309 308 307 306 306 306 304 302 299 296 293 290 287 286 284 283 283 282 282 282 282 282 281 281 282 282 283 284
290 292 295 298 301 304 306 307 307 307 307 307 309 312 317 311 310 308 306 306 307 306 304 302 299 296 293 291 289 287 286 284 283 283 282 282 282 281 281 282 282 282 283 284
286 291 297 300 302 304 306 307 308 308 312 313 314 316 318 312 309 306 305 306 307 306 303 300 298 295 294 292 290 289 287 286 285 284 283 282 282 281 282 282 282 282 283 283
289 292 297 299 301 303 305 307 308 309 310 309 309 311 314 310 306 304 304 305 306 306 305 302 300 297 296 294 292 290 289 287 286 284 284 283 283 283 282 282 282 283 283 284
291 295 298 300 301 303 304 304 305 305 306 306 308 309 310 310 307 306 306 307 309 309 308 306 303 301 299 297 295 293 291 289 288 286 285 284 284 283 283 283 283 283 283 284
290 293 296 297 299 300 301 303 304 305 306 307 309 312 315 314 310 309 308 310 311 311 310 307 305 302 300 299 297 295 293 292 290 289 287 286 285 285 284 284 284 284 284 284
290 292 295 296 296 296 298 299 301 302 303 305 307 313 316 311 309 308 309 312 312 312 311 309 307 306 304 303 301 299 297 295 293 292 290 289 287 287 286 285 285 284 284 285
290 292 295 297 297 297 299 300 301 302 303 305 307 314 315 312 311 311 315 316 315 314 314 313 311 310 309 307 305 303 301 299 297 295 293 291 289 287 286 285 285 284 285 285
290 292 294 295 296 296 299 302 303 302 303 305 307 314 314 311 311 315 317 317 316 315 315 314 313 312 311 309 307 306 304 302 301 299 297 294 291 289 288 286 285 285 285 286
288 290 293 295 296 297 300 304 304 303 305 306 310 311 311 309 311 314 314 314 314 314 313 313 312 311 310 309 308 307 306 304 303 301 300 297 295 293 290 289 287 287 287 288
286 289 290 291 292 292 296 299 299 301 304 306 309 310 310 310 312 312 312 312 311 311 311 311 310 310 309 308 307 307 306 305 304 303 301 300 298 296 294 292 290 289 289 289
286 288 288 290 291 291 295 296 296 299 301 303 306 308 308 310 311 311 310 310 310 310 310 309 309 308 308 308 307 307 306 306 305 303 302 300 298 297 295 294 292 291 290 289
283 285 286 288 288 290 294 295 297 299 301 302 304 306 307 309 310 310 309 308 308 308 308 307 307 307 307 307 307 306 305 304 304 303 301 300 298 297 296 295 294 292 291 290
284 285 286 287 287 289 295 297 298 299 301 302 303 305 306 307 308 308 308 307 307 307 307 307 307 306 306 306 306 305 304 304 303 302 301 300 298 297 296 295 294 292 291 290
282 284 286 289 290 292 295 296 297 299 301 302 303 304 305 305 306 307 307 307 307 307 306 306 306 306 305 305 305 304 304 303 302 302 301 299 298 296 295 295 294 293 292 291
279 282 286 289 291 295 298 298 299 300 301 303 304 305 305 305 305 306 306 306 306 306 306 305 305 305 305 305 304 304 304 303 302 302 301 299 298 296 295 295 294 293 293 292
279 283 287 289 291 296 297 298 300 301 303 304 305 305 305 306 306 306 305 305 305 305 305 305 305 305 305 305 304 304 304 303 302 301 300 299 298 297 296 295 294 294 293 293
281 285 287 289 291 295 297 298 300 301 303 304 304 304 304 304 304 304 304 304 304 304 304 304 305 305 305 305 304 304 303 302 302 301 300 298 297 296 296 295 295 295 294 294
283 287 288 289 292 295 297 299 300 301 302 303 303 303 302 303 303 303 303 304 304 304 305 305 305 306 306 305 305 304 303 302 301 300 299 298 298 297 296 296 296 296 296 296
286 287 286 287 291 293 295 297 298 299 300 301 301 301 301 302 303 303 304 304 305 305 306 306 306 306 306 305 304 303 303 302 301 301 300 300 299 298 297 297 297 298 298 298
289 287 287 289 293 294 296 298 298 299 300 301 301 302 302 302 303 303 304 305 305 306 306 306 306 306 306 305 305 304 304 303 303 302 302 301 301 300 299 299 299 299 299 299
288 287 289 293 295 296 297 298 298 299 300 300 301 301 302 303 303 304 305 306 306 306 306 306 306 306 306 306 305 305 305 305 304 304 304 303 303 302 301 301 301 301 302 302
Height
5835 5836 5835 5835 5834 5834 5833 5832 5831 5830 5828 5828 5825 5822 5820 5819 5817 5816 5814 5812 5811 5809 5808 5806 5806 5805 5803 5802 5800 5799 5798 5796 5795 5793 5792 5790 5789 5787 5786 5784 5781 5778 5775 5772
5831 5831 5831 5830 5829 5829 5828 5827 5827 5826 5824 5823 5821 5817 5815 5814 5812 5810 5809 5807 5805 5804 5802 5800 5798 5797 5796 5794 5792 5791 5790 5788 5787 5785 5783 5781 5780 5778 5776 5774 5771 5767 5764 5761
5827 5827 5826 5825 5825 5824 5823 5822 5822 5821 5820 5818 5817 5814 5809 5808 5807 5805 5804 5802 5800 5798 5796 5794 5792 5790 5788 5786 5784 5782 5781 5779 5777 5775 5773 5772 5769 5768 5766 5763 5759 5756 5752 5750
5823 5823 5822 5822 5821 5820 5820 5818 5817 5815 5814 5814 5812 5811 5806 5801 5801 5800 5798 5796 5794 5792 5790 5787 5785 5782 5780 5778 5776 5773 5771 5769 5767 5765 5762 5760 5758 5756 5754 5750 5747 5744 5740 5736
5820 5820 5819 5818 5817 5816 5815 5814 5812 5811 5809 5809 5808 5806 5805 5798 5794 5792 5791 5790 5788 5786 5783 5780 5777 5775 5772 5769 5767 5764 5761 5759 5756 5754 5751 5748 5746 5744 5740 5736 5734 5730 5727 5723
5817 5816 5816 5815 5813 5812 5810 5810 5808 5806 5805 5804 5803 5801 5800 5794 5790 5786 5784 5782 5781 5779 5776 5773 5769 5766 5763 5761 5758 5755 5751 5748 5745 5742 5739 5736 5733 5729 5726 5722 5719 5716 5712 5709
5813 5813 5812 5810 5809 5808 5806 5805 5803 5800 5798 5797 5795 5794 5794 5789 5785 5781 5777 5775 5773 5771 5768 5765 5761 5758 5754 5751 5748 5744 5741 5737 5733 5730 5726 5723 5719 5715 5711 5708 5704 5700 5696 5693
5809 5809 5809 5806 5805 5803 5801 5800 5798 5795 5793 5791 5790 5789 5789 5783 5778 5773 5770 5768 5766 5763 5759 5756 5752 5748 5744 5741 5737 5733 5729 5725 5721 5717 5713 5709 5705 5701 5697 5693 5688 5684 5681 5677
5804 5804 5804 5802 5800 5798 5796 5794 5792 5789 5785 5783 5783 5782 5781 5776 5771 5766 5762 5759 5757 5754 5750 5746 5742 5738 5734 5729 5725 5721 5717 5713 5708 5704 5699 5695 5691 5686 5682 5678 5673 5669 5664 5660
5798 5799 5799 5797 5795 5792 5790 5787 5785 5781 5778 5775 5775 5774 5772 5767 5763 5759 5754 5751 5748 5745 5741 5737 5732 5728 5723 5719 5714 5709 5705 5700 5695 5690 5686 5681 5676 5671 5667 5663 5658 5653 5649 5644
5793 5792 5792 5791 5789 5786 5785 5783 5778 5775 5772 5768 5765 5769 5765 5760 5755 5752 5748 5744 5740 5736 5732 5727 5722 5718 5713 5708 5703 5698 5693 5688 5683 5677 5672 5667 5662 5657 5652 5647 5642 5638 5633 5628
5786 5785 5785 5784 5781 5778 5776 5775 5772 5769 5766 5762 5758 5761 5756 5751 5746 5743 5740 5736 5731 5727 5722 5717 5713 5708 5702 5697 5692 5687 5681 5676 5670 5664 5658 5653 5647 5642 5637 5632 5627 5622 5618 5613
5779 5778 5777 5777 5775 5772 5769 5767 5764 5761 5759 5756 5752 5754 5750 5744 5739 5735 5731 5727 5722 5717 5713 5708 5703 5697 5692 5686 5681 5675 5669 5663 5657 5651 5645 5638 5632 5627 5621 5616 5611 5606 5602 5597
5771 5771 5770 5769 5767 5763 5761 5760 5756 5753 5751 5748 5747 5744 5743 5737 5732 5729 5724 5719 5714 5709 5704 5698 5693 5687 5681 5675 5669 5663 5657 5650 5643 5637 5630 5624 5618 5611 5606 5601 5596 5591 5586 5581
5764 5764 5762 5761 5759 5757 5756 5754 5750 5747 5744 5741 5740 5736 5733 5729 5725 5721 5716 5710 5705 5700 5694 5688 5682 5676 5670 5664 5657 5651 5644 5637 5630 5623 5616 5610 5603 5596 5590 5585 5580 5575 5570 5565
5756 5755 5754 5754 5751 5749 5749 5747 5743 5741 5738 5734 5731 5728 5724 5720 5716 5711 5706 5700 5695 5689 5683 5677 5671 5664 5658 5651 5645 5638 5630 5623 5616 5609 5602 5595 5588 5582 5575 5570 5564 5559 5553 5548
5749 5747 5746 5746 5744 5742 5742 5739 5736 5733 5730 5727 5723 5720 5715 5710 5706 5701 5695 5689 5683 5678 5671 5665 5658 5651 5644 5637 5630 5623 5616 5608 5601 5594 5586 5579 5572 5566 5560 5554 5548 5542 5537 5532
5741 5738 5736 5737 5736 5735 5736 5731 5727 5724 5722 5718 5714 5709 5705 5700 5695 5690 5683 5677 5671 5664 5658 5651 5644 5637 5629 5622 5614 5607 5599 5592 5585 5577 5570 5562 5556 5549 5543 5537 5531 5525 5520 5515
5733 5730 5728 5727 5725 5725 5727 5722 5717 5714 5712 5708 5703 5699 5694 5689 5685 5679 5671 5664 5657 5650 5643 5635 5628 5620 5613 5605 5597 5590 5582 5574 5567 5560 5553 5545 5538 5532 5526 5520 5514 5508 5503 5498
5725 5723 5722 5718 5715 5715 5716 5711 5706 5704 5700 5696 5691 5686 5681 5676 5671 5666 5657 5650 5642 5634 5627 5619 5611 5603 5595 5587 5579 5572 5564 5556 5549 5542 5535 5527 5520 5514 5508 5502 5496 5491 5485 5480
5718 5715 5713 5709 5705 5705 5704 5699 5696 5693 5689 5684 5678 5673 5667 5661 5655 5649 5641 5634 5625 5618 5609 5601 5593 5585 5576 5568 5560 5553 5546 5538 5531 5524 5517 5510 5503 5496 5490 5485 5479 5473 5468 5463
5708 5707 5704 5700 5697 5698 5691 5688 5684 5681 5676 5670 5665 5659 5653 5647 5639 5632 5625 5617 5609 5600 5592 5583 5575 5567 5558 5549 5541 5535 5527 5520 5513 5506 5499 5492 5486 5479 5473 5467 5462 5456 5450 5445
5699 5698 5694 5690 5689 5685 5680 5675 5671 5666 5662 5656 5650 5644 5637 5631 5624 5616 5608 5600 5591 5582 5573 5564 5556 5549 5540 5530 5522 5515 5509 5501 5495 5489 5482 5475 5469 5462 5456 5450 5444 5439 5433 5428
5690 5687 5682 5678 5678 5675 5669 5664 5660 5654 5648 5642 5635 5628 5621 5614 5606 5598 5590 5581 5572 5563 5554 5545 5537 5530 5523 5514 5505 5497 5490 5483 5477 5471 5465 5458 5452 5446 5440 5433 5427 5422 5416 5411
5678 5672 5668 5666 5665 5661 5656 5650 5645 5639 5633 5626 5619 5612 5604 5596 5588 5580 5571 5562 5554 5545 5536 5527 5519 5512 5505 5497 5490 5481 5473 5466 5461 5455 5448 5442 5435 5429 5424 5418 5411 5405 5400 5393
5664 5658 5655 5654 5650 5645 5641 5635 5629 5623 5617 5610 5603 5596 5587 5578 5570 5562 5553 5544 5535 5527 5519 5511 5503 5496 5489 5481 5474 5466 5458 5451 5445 5439 5433 5426 5420 5414 5408 5403 5398 5391 5384 5378